OneWeb SL0156

operational
NORAD ID: 48052 Int'l Des: 2021-025 Owner: ONEWEBN Country: UK Constellation: oneweb
LEOCIRCULARPOLARONEWEB_TYPE

关于 OneWeb SL0156

正在加载描述...

实时位置

正在加载3D地球...

即将过境

高度历史

Altitude vs Time

uPlot chart will show altitude changes over time

两行轨道根数

1 48052U 21025L 25304.73772087 -.00000327 00000-0 -93032-3 0 9998
2 48052 87.9041 5.6116 0001880 94.7350 265.3994 13.13471306223581
Epoch: Oct 31, 2025 • Age: 21 hours

当前状态

高度 1213.3 km
速度 7.25 km/s
星下点 33.66°N, 75.47°W
发射日期 Mar 25, 2021
运行时间 4.6 years
类型 internet

技术详情

分类 Payload
质量 148.00 kg
干质量 140.00 kg
总质量 148.00 kg
长度 1.30 m
直径 1.00 m
跨度 5.00 m
形状 Trapezoid+2 pan
制造商 ONEWUS
平台类型 ARROW
阶段状态 In Orbit
所有者/国家 ONEWEBN/UK

大型星座

Loading constellations...